Time,TemperatureF,DewpointF,PressureIn,WindDirection,WindDirectionDegrees,WindSpeedMPH,WindSpeedGustMPH,Humidity,HourlyPrecipIn,Conditions,Clouds,dailyrainin,SoftwareType,DateUTC
2013-07-27 00:00:00,52.5,49.9,30.13,West,269,0.0,0.0,91,0.00,,,0.38,Wunderground v.1.15,2013-07-27 06:00:00,
2013-07-27 00:10:00,52.3,50.0,30.13,West,269,0.0,0.0,92,0.00,,,0.38,Wunderground v.1.15,2013-07-27 06:10:00,
2013-07-27 00:15:00,52.2,49.9,30.13,West,269,0.0,0.0,92,0.00,,,0.38,Wunderground v.1.15,2013-07-27 06:15:00,
2013-07-27 00:25:00,52.0,49.7,30.13,West,269,0.0,0.0,92,0.00,,,0.38,Wunderground v.1.15,2013-07-27 06:25:00,
2013-07-27 00:35:00,51.8,49.5,30.14,West,269,0.0,0.0,92,0.00,,,0.38,Wunderground v.1.15,2013-07-27 06:35:00,
2013-07-27 00:45:00,51.7,49.5,30.14,West,269,0.0,0.0,92,0.00,,,0.38,Wunderground v.1.15,2013-07-27 06:45:00,
2013-07-27 00:55:00,51.5,49.3,30.13,West,269,0.0,0.0,92,0.00,,,0.38,Wunderground v.1.15,2013-07-27 06:55:00,
2013-07-27 01:05:00,51.4,49.2,30.13,West,269,0.0,0.0,92,0.00,,,0.00,Wunderground v.1.15,2013-07-27 07:05:00,
2013-07-27 01:15:00,51.3,49.3,30.13,West,269,0.0,0.0,93,0.00,,,0.00,Wunderground v.1.15,2013-07-27 07:15:00,
2013-07-27 01:25:00,51.2,49.2,30.13,West,269,0.0,0.0,93,0.00,,,0.00,Wunderground v.1.15,2013-07-27 07:25:00,
2013-07-27 01:35:00,51.1,49.1,30.12,West,269,0.0,0.0,93,0.00,,,0.00,Wunderground v.1.15,2013-07-27 07:35:00,
2013-07-27 01:45:00,51.1,49.1,30.12,West,269,0.0,0.0,93,0.00,,,0.00,Wunderground v.1.15,2013-07-27 07:45:00,
2013-07-27 01:55:00,51.0,49.0,30.12,West,269,0.0,0.0,93,0.00,,,0.00,Wunderground v.1.15,2013-07-27 07:55:00,
2013-07-27 02:05:00,51.0,49.0,30.12,West,269,0.0,0.0,93,0.00,,,0.00,Wunderground v.1.15,2013-07-27 08:05:00,
2013-07-27 02:15:00,51.0,49.0,30.12,West,269,0.0,0.0,93,0.00,,,0.00,Wunderground v.1.15,2013-07-27 08:15:00,
2013-07-27 02:25:00,51.0,49.0,30.12,West,269,0.0,0.0,93,0.00,,,0.00,Wunderground v.1.15,2013-07-27 08:25:00,
2013-07-27 02:35:00,51.0,49.3,30.12,West,269,0.0,0.0,94,0.00,,,0.00,Wunderground v.1.15,2013-07-27 08:35:00,
2013-07-27 02:45:00,50.9,49.2,30.12,West,269,0.0,0.0,94,0.00,,,0.00,Wunderground v.1.15,2013-07-27 08:45:00,
2013-07-27 02:55:00,50.9,49.2,30.12,West,269,0.0,0.0,94,0.00,,,0.00,Wunderground v.1.15,2013-07-27 08:55:00,
2013-07-27 03:00:00,50.9,48.9,30.12,West,269,0.0,0.0,93,0.00,,,0.00,Wunderground v.1.15,2013-07-27 09:00:00,
2013-07-27 03:10:00,50.7,48.7,30.12,West,269,0.0,0.0,93,0.00,,,0.00,Wunderground v.1.15,2013-07-27 09:10:00,
2013-07-27 03:15:00,50.6,48.7,30.12,West,269,0.0,0.0,93,0.00,,,0.00,Wunderground v.1.15,2013-07-27 09:15:00,
2013-07-27 03:25:00,50.5,48.6,30.13,West,269,0.0,0.0,93,0.00,,,0.00,Wunderground v.1.15,2013-07-27 09:25:00,
2013-07-27 03:35:00,50.4,48.7,30.13,West,269,0.0,0.0,94,0.00,,,0.00,Wunderground v.1.15,2013-07-27 09:35:00,
2013-07-27 03:45:00,50.3,48.6,30.13,West,269,0.0,0.0,94,0.00,,,0.00,Wunderground v.1.15,2013-07-27 09:45:00,
2013-07-27 03:55:00,50.1,48.2,30.13,West,269,0.0,0.0,93,0.00,,,0.00,Wunderground v.1.15,2013-07-27 09:55:00,
2013-07-27 04:05:00,50.0,48.1,30.13,West,269,0.0,0.0,93,0.00,,,0.00,Wunderground v.1.15,2013-07-27 10:05:00,
2013-07-27 04:15:00,49.7,47.8,30.12,West,269,0.0,0.0,93,0.00,,,0.00,Wunderground v.1.15,2013-07-27 10:15:00,
2013-07-27 04:25:00,49.5,47.6,30.12,West,269,0.0,0.0,93,0.00,,,0.00,Wunderground v.1.15,2013-07-27 10:25:00,
2013-07-27 04:30:00,49.4,47.5,30.12,West,269,0.0,0.0,93,0.00,,,0.00,Wunderground v.1.15,2013-07-27 10:30:00,
2013-07-27 04:40:00,49.1,47.2,30.12,West,269,0.0,0.0,93,0.00,,,0.00,Wunderground v.1.15,2013-07-27 10:40:00,
2013-07-27 04:50:00,49.0,47.1,30.12,West,269,0.0,0.0,93,0.00,,,0.00,Wunderground v.1.15,2013-07-27 10:50:00,
2013-07-27 04:55:00,48.8,46.9,30.12,West,269,0.0,0.0,93,0.00,,,0.00,Wunderground v.1.15,2013-07-27 10:55:00,
2013-07-27 05:05:00,48.6,46.7,30.12,West,269,0.0,0.0,93,0.00,,,0.00,Wunderground v.1.15,2013-07-27 11:05:00,
2013-07-27 05:15:00,48.4,46.8,30.12,West,269,0.0,0.0,94,0.00,,,0.00,Wunderground v.1.15,2013-07-27 11:15:00,
2013-07-27 05:25:00,48.2,46.3,30.12,West,269,0.0,0.0,93,0.00,,,0.00,Wunderground v.1.15,2013-07-27 11:25:00,
2013-07-27 05:35:00,48.0,46.1,30.12,West,269,0.0,0.0,93,0.00,,,0.00,Wunderground v.1.15,2013-07-27 11:35:00,
2013-07-27 05:45:00,47.8,45.9,30.12,West,269,0.0,0.0,93,0.00,,,0.00,Wunderground v.1.15,2013-07-27 11:45:00,
2013-07-27 05:55:00,47.6,45.7,30.12,West,269,0.0,0.0,93,0.00,,,0.00,Wunderground v.1.15,2013-07-27 11:55:00,
2013-07-27 06:00:00,47.6,46.0,30.12,West,269,0.0,0.0,94,0.00,,,0.00,Wunderground v.1.15,2013-07-27 12:00:00,
2013-07-27 06:10:00,47.4,45.5,30.11,West,269,0.0,0.0,93,0.00,,,0.00,Wunderground v.1.15,2013-07-27 12:10:00,
2013-07-27 06:15:00,47.3,45.4,30.11,West,269,0.0,0.0,93,0.00,,,0.00,Wunderground v.1.15,2013-07-27 12:15:00,
2013-07-27 06:25:00,47.1,45.5,30.11,West,269,0.0,0.0,94,0.00,,,0.00,Wunderground v.1.15,2013-07-27 12:25:00,
2013-07-27 06:35:00,46.9,45.3,30.11,West,269,0.0,0.0,94,0.00,,,0.00,Wunderground v.1.15,2013-07-27 12:35:00,
2013-07-27 06:45:00,46.8,45.2,30.11,West,269,0.0,0.0,94,0.00,,,0.00,Wunderground v.1.15,2013-07-27 12:45:00,
2013-07-27 06:55:00,46.7,45.1,30.11,West,269,0.0,0.0,94,0.00,,,0.00,Wunderground v.1.15,2013-07-27 12:55:00,
2013-07-27 07:00:00,46.8,45.2,30.11,West,269,0.0,0.0,94,0.00,,,0.00,Wunderground v.1.15,2013-07-27 13:00:00,
2013-07-27 07:10:00,46.9,45.5,30.11,West,269,0.0,0.0,95,0.00,,,0.00,Wunderground v.1.15,2013-07-27 13:10:00,
2013-07-27 07:15:00,47.0,45.6,30.11,West,269,0.0,0.0,95,0.00,,,0.00,Wunderground v.1.15,2013-07-27 13:15:00,
2013-07-27 07:25:00,47.2,45.8,30.11,West,269,0.0,0.0,95,0.00,,,0.00,Wunderground v.1.15,2013-07-27 13:25:00,
2013-07-27 07:30:00,47.4,46.0,30.11,West,269,0.0,0.0,95,0.00,,,0.00,Wunderground v.1.15,2013-07-27 13:30:00,
2013-07-27 07:40:00,47.7,46.3,30.11,West,269,0.0,0.0,95,0.00,,,0.00,Wunderground v.1.15,2013-07-27 13:40:00,
2013-07-27 07:50:00,48.4,47.3,30.11,West,269,0.0,0.0,96,0.00,,,0.00,Wunderground v.1.15,2013-07-27 13:50:00,
2013-07-27 07:55:00,49.0,47.9,30.11,West,269,0.0,0.0,96,0.00,,,0.00,Wunderground v.1.15,2013-07-27 13:55:00,
2013-07-27 08:05:00,49.7,48.6,30.10,West,269,0.0,0.0,96,0.00,,,0.00,Wunderground v.1.15,2013-07-27 14:05:00,
2013-07-27 08:15:00,50.4,49.3,30.10,West,269,0.0,0.0,96,0.00,,,0.00,Wunderground v.1.15,2013-07-27 14:15:00,
2013-07-27 08:20:00,50.9,49.8,30.10,West,269,0.0,0.0,96,0.00,,,0.00,Wunderground v.1.15,2013-07-27 14:20:00,
2013-07-27 08:30:00,52.3,51.2,30.10,West,269,0.0,0.0,96,0.00,,,0.00,Wunderground v.1.15,2013-07-27 14:30:00,
2013-07-27 08:40:00,53.9,52.2,30.09,West,269,0.0,0.0,94,0.00,,,0.00,Wunderground v.1.15,2013-07-27 14:40:00,
2013-07-27 08:50:00,55.1,52.2,30.08,West,269,0.0,0.0,90,0.00,,,0.00,Wunderground v.1.15,2013-07-27 14:50:00,
2013-07-27 09:00:00,57.2,50.7,30.08,West,269,0.0,0.0,79,0.00,,,0.00,Wunderground v.1.15,2013-07-27 15:00:00,
2013-07-27 09:05:00,58.2,50.7,30.08,West,269,0.0,0.0,76,0.00,,,0.00,Wunderground v.1.15,2013-07-27 15:05:00,
2013-07-27 09:15:00,59.6,51.7,30.08,SW,230,0.0,0.0,75,0.00,,,0.00,Wunderground v.1.15,2013-07-27 15:15:00,
2013-07-27 09:25:00,60.9,51.4,30.07,ESE,103,0.0,0.0,71,0.00,,,0.00,Wunderground v.1.15,2013-07-27 15:25:00,
2013-07-27 09:35:00,62.0,51.7,30.06,ESE,103,0.0,0.0,69,0.00,,,0.00,Wunderground v.1.15,2013-07-27 15:35:00,
2013-07-27 09:45:00,62.5,51.0,30.05,ESE,103,0.0,0.0,66,0.00,,,0.00,Wunderground v.1.15,2013-07-27 15:45:00,
2013-07-27 09:55:00,63.7,52.5,30.04,ESE,121,0.0,0.0,67,0.00,,,0.00,Wunderground v.1.15,2013-07-27 15:55:00,
2013-07-27 10:05:00,65.0,51.7,30.04,ESE,121,0.0,0.0,62,0.00,,,0.00,Wunderground v.1.15,2013-07-27 16:05:00,
2013-07-27 10:15:00,66.7,51.5,30.03,SSE,160,0.0,0.0,58,0.00,,,0.00,Wunderground v.1.15,2013-07-27 16:15:00,
2013-07-27 10:25:00,68.0,52.2,30.03,SSE,153,0.0,0.0,57,0.00,,,0.00,Wunderground v.1.15,2013-07-27 16:25:00,
2013-07-27 10:35:00,69.3,51.9,30.02,SSE,153,0.0,0.0,54,0.00,,,0.00,Wunderground v.1.15,2013-07-27 16:35:00,
2013-07-27 10:40:00,70.2,51.7,30.02,SSE,159,0.0,0.0,52,0.00,,,0.00,Wunderground v.1.15,2013-07-27 16:40:00,
2013-07-27 10:50:00,71.2,52.1,30.02,ESE,109,0.0,0.0,51,0.00,,,0.00,Wunderground v.1.15,2013-07-27 16:50:00,
2013-07-27 11:00:00,72.0,53.4,30.01,SSW,196,0.0,0.0,52,0.00,,,0.00,Wunderground v.1.15,2013-07-27 17:00:00,
2013-07-27 11:05:00,72.5,53.3,30.01,ESE,113,0.0,0.0,51,0.00,,,0.00,Wunderground v.1.15,2013-07-27 17:05:00,
2013-07-27 11:15:00,73.0,53.8,30.00,SE,143,0.0,0.0,51,0.00,,,0.00,Wunderground v.1.15,2013-07-27 17:15:00,
2013-07-27 11:25:00,73.8,53.4,30.00,South,184,0.0,0.0,49,0.00,,,0.00,Wunderground v.1.15,2013-07-27 17:25:00,
2013-07-27 11:35:00,74.0,52.5,29.99,ENE,74,0.0,0.0,47,0.00,,,0.00,Wunderground v.1.15,2013-07-27 17:35:00,
2013-07-27 11:45:00,73.6,51.5,29.99,East,95,0.0,0.0,46,0.00,,,0.00,Wunderground v.1.15,2013-07-27 17:45:00,
2013-07-27 11:50:00,73.0,52.7,29.98,East,94,0.0,0.0,49,0.00,,,0.00,Wunderground v.1.15,2013-07-27 17:50:00,
2013-07-27 12:00:00,73.0,52.7,29.98,ESE,119,0.0,0.0,49,0.00,,,0.00,Wunderground v.1.15,2013-07-27 18:00:00,
2013-07-27 12:10:00,73.3,53.0,29.97,ESE,115,0.0,0.0,49,0.00,,,0.00,Wunderground v.1.15,2013-07-27 18:10:00,
2013-07-27 12:15:00,73.1,52.2,29.97,East,101,0.0,0.0,48,0.00,,,0.00,Wunderground v.1.15,2013-07-27 18:15:00,
2013-07-27 12:25:00,73.7,53.3,29.97,South,188,0.0,0.0,49,0.00,,,0.00,Wunderground v.1.15,2013-07-27 18:25:00,
2013-07-27 12:35:00,74.4,52.3,29.97,ESE,116,0.0,0.0,46,0.00,,,0.00,Wunderground v.1.15,2013-07-27 18:35:00,
2013-07-27 12:40:00,73.9,51.8,29.96,ESE,105,0.0,0.0,46,0.00,,,0.00,Wunderground v.1.15,2013-07-27 18:40:00,
2013-07-27 12:50:00,74.3,54.5,29.95,ESE,107,0.0,0.0,50,0.00,,,0.00,Wunderground v.1.15,2013-07-27 18:50:00,
2013-07-27 13:00:00,75.4,53.2,29.95,SSW,206,0.0,0.0,46,0.00,,,0.00,Wunderground v.1.15,2013-07-27 19:00:00,
2013-07-27 13:10:00,76.1,53.8,29.94,East,83,0.0,0.0,46,0.00,,,0.00,Wunderground v.1.15,2013-07-27 19:10:00,
2013-07-27 13:15:00,76.4,54.1,29.93,East,89,0.0,0.0,46,0.00,,,0.00,Wunderground v.1.15,2013-07-27 19:15:00,
2013-07-27 13:25:00,77.6,54.6,29.92,ESE,106,0.0,0.0,45,0.00,,,0.00,Wunderground v.1.15,2013-07-27 19:25:00,
2013-07-27 13:35:00,77.2,53.6,29.92,East,94,0.0,0.0,44,0.00,,,0.00,Wunderground v.1.15,2013-07-27 19:35:00,
2013-07-27 13:45:00,77.4,55.0,29.91,South,178,0.0,0.0,46,0.00,,,0.00,Wunderground v.1.15,2013-07-27 19:45:00,
2013-07-27 13:50:00,76.9,54.5,29.91,East,89,0.0,0.0,46,0.00,,,0.00,Wunderground v.1.15,2013-07-27 19:50:00,
2013-07-27 14:00:00,76.9,55.1,29.91,East,96,0.0,0.0,47,0.00,,,0.00,Wunderground v.1.15,2013-07-27 20:00:00,
2013-07-27 14:10:00,76.6,55.4,29.90,East,96,0.0,0.0,48,0.00,,,0.00,Wunderground v.1.15,2013-07-27 20:10:00,
2013-07-27 14:15:00,76.7,53.1,29.89,ESE,111,0.0,0.0,44,0.00,,,0.00,Wunderground v.1.15,2013-07-27 20:15:00,
2013-07-27 14:25:00,76.7,55.5,29.89,ESE,103,0.0,0.0,48,0.00,,,0.00,Wunderground v.1.15,2013-07-27 20:25:00,
2013-07-27 14:30:00,77.2,53.0,29.89,SSE,159,0.0,0.0,43,0.00,,,0.00,Wunderground v.1.15,2013-07-27 20:30:00,
2013-07-27 14:40:00,76.7,53.1,29.88,East,95,0.0,0.0,44,0.00,,,0.00,Wunderground v.1.15,2013-07-27 20:40:00,
2013-07-27 14:50:00,75.0,52.8,29.88,East,98,0.0,0.0,46,0.00,,,0.00,Wunderground v.1.15,2013-07-27 20:50:00,
2013-07-27 15:00:00,73.9,54.1,29.88,ESE,111,0.0,0.0,50,0.00,,,0.00,Wunderground v.1.15,2013-07-27 21:00:00,
2013-07-27 15:10:00,73.4,53.6,29.87,East,80,0.0,0.0,50,0.00,,,0.00,Wunderground v.1.15,2013-07-27 21:10:00,
2013-07-27 15:15:00,74.3,54.5,29.87,East,79,0.0,0.0,50,0.00,,,0.00,Wunderground v.1.15,2013-07-27 21:15:00,
2013-07-27 15:25:00,76.9,53.9,29.86,ENE,59,0.0,0.0,45,0.00,,,0.00,Wunderground v.1.15,2013-07-27 21:25:00,
2013-07-27 15:35:00,77.5,53.2,29.86,ESE,111,0.0,0.0,43,0.00,,,0.00,Wunderground v.1.15,2013-07-27 21:35:00,
2013-07-27 15:45:00,77.2,52.3,29.84,East,86,0.0,0.0,42,0.00,,,0.00,Wunderground v.1.15,2013-07-27 21:45:00,
2013-07-27 15:55:00,75.0,50.3,29.84,NE,47,0.0,0.0,42,0.00,,,0.00,Wunderground v.1.15,2013-07-27 21:55:00,
2013-07-27 16:05:00,72.8,49.6,29.84,ESE,103,0.0,0.0,44,0.00,,,0.00,Wunderground v.1.15,2013-07-27 22:05:00,
2013-07-27 16:15:00,70.4,50.3,29.85,SW,234,0.0,0.0,49,0.00,,,0.00,Wunderground v.1.15,2013-07-27 22:15:00,
2013-07-27 16:25:00,67.4,50.7,29.86,SE,134,0.0,0.0,55,0.00,,,0.00,Wunderground v.1.15,2013-07-27 22:25:00,
2013-07-27 16:35:00,65.4,49.3,29.86,NNW,344,0.0,0.0,56,0.00,,,0.00,Wunderground v.1.15,2013-07-27 22:35:00,
2013-07-27 16:45:00,64.3,50.6,29.85,WSW,242,0.0,0.0,61,0.00,,,0.00,Wunderground v.1.15,2013-07-27 22:45:00,
2013-07-27 16:55:00,63.9,49.7,29.85,SE,128,0.0,0.0,60,0.00,,,0.00,Wunderground v.1.15,2013-07-27 22:55:00,
2013-07-27 17:05:00,63.7,49.5,29.85,SW,236,0.0,0.0,60,0.00,,,0.00,Wunderground v.1.15,2013-07-27 23:05:00,
2013-07-27 17:10:00,63.7,49.5,29.85,SSE,153,0.0,0.0,60,0.00,,,0.00,Wunderground v.1.15,2013-07-27 23:10:00,
2013-07-27 17:15:00,63.6,49.5,29.85,SSE,153,0.0,0.0,60,0.00,,,0.00,Wunderground v.1.15,2013-07-27 23:15:00,
2013-07-27 17:25:00,63.1,49.4,29.85,SSE,152,0.0,0.0,61,0.00,,,0.00,Wunderground v.1.15,2013-07-27 23:25:00,
2013-07-27 17:35:00,62.8,50.4,29.84,SSE,152,0.0,0.0,64,0.00,,,0.00,Wunderground v.1.15,2013-07-27 23:35:00,
2013-07-27 17:45:00,62.6,49.8,29.85,East,82,0.0,0.0,63,0.00,,,0.00,Wunderground v.1.15,2013-07-27 23:45:00,
2013-07-27 17:55:00,62.4,50.5,29.85,SW,230,0.0,0.0,65,0.00,,,0.00,Wunderground v.1.15,2013-07-27 23:55:00,
2013-07-27 18:05:00,62.2,50.7,29.84,NE,55,0.0,0.0,66,0.00,,,0.00,Wunderground v.1.15,2013-07-28 00:05:00,
2013-07-27 18:15:00,62.3,50.8,29.83,South,190,0.0,0.0,66,0.00,,,0.00,Wunderground v.1.15,2013-07-28 00:15:00,
2013-07-27 18:25:00,62.3,50.8,29.83,SE,131,0.0,0.0,66,0.00,,,0.00,Wunderground v.1.15,2013-07-28 00:25:00,
2013-07-27 18:35:00,62.4,51.3,29.83,NNW,329,0.0,0.0,67,0.00,,,0.00,Wunderground v.1.15,2013-07-28 00:35:00,
2013-07-27 18:40:00,62.5,51.0,29.83,WNW,295,0.0,0.0,66,0.00,,,0.00,Wunderground v.1.15,2013-07-28 00:40:00,
2013-07-27 18:50:00,62.5,51.0,29.82,WSW,249,0.0,0.0,66,0.00,,,0.00,Wunderground v.1.15,2013-07-28 00:50:00,
2013-07-27 19:00:00,62.0,52.1,29.83,WSW,250,0.0,0.0,70,0.00,,,0.00,Wunderground v.1.15,2013-07-28 01:00:00,
2013-07-27 19:10:00,61.1,52.7,29.82,WSW,250,0.0,0.0,74,0.00,,,0.00,Wunderground v.1.15,2013-07-28 01:10:00,
2013-07-27 19:15:00,60.6,52.3,29.82,WSW,250,0.0,0.0,74,0.00,,,0.00,Wunderground v.1.15,2013-07-28 01:15:00,
2013-07-27 19:25:00,60.3,52.0,29.82,WSW,250,0.0,0.0,74,0.00,,,0.00,Wunderground v.1.15,2013-07-28 01:25:00,
2013-07-27 19:35:00,60.3,51.6,29.82,WSW,250,0.0,0.0,73,0.00,,,0.00,Wunderground v.1.15,2013-07-28 01:35:00,
2013-07-27 19:45:00,60.5,51.8,29.82,WSW,250,0.0,0.0,73,0.00,,,0.00,Wunderground v.1.15,2013-07-28 01:45:00,
2013-07-27 19:55:00,60.4,52.1,29.82,WSW,250,0.0,0.0,74,0.00,,,0.00,Wunderground v.1.15,2013-07-28 01:55:00,
2013-07-27 20:05:00,60.1,52.1,29.82,SW,221,0.0,0.0,75,0.00,,,0.00,Wunderground v.1.15,2013-07-28 02:05:00,
2013-07-27 20:10:00,59.8,51.9,29.82,SW,221,0.0,0.0,75,0.00,,,0.00,Wunderground v.1.15,2013-07-28 02:10:00,
2013-07-27 20:15:00,59.6,52.0,29.82,WSW,238,0.0,0.0,76,0.00,,,0.00,Wunderground v.1.15,2013-07-28 02:15:00,
2013-07-27 20:25:00,59.3,52.1,29.82,WSW,238,0.0,0.0,77,0.00,,,0.00,Wunderground v.1.15,2013-07-28 02:25:00,
2013-07-27 20:30:00,59.1,51.9,29.82,WSW,238,0.0,0.0,77,0.00,,,0.00,Wunderground v.1.15,2013-07-28 02:30:00,
2013-07-27 20:40:00,59.0,51.8,29.82,WSW,238,0.0,0.0,77,0.00,,,0.00,Wunderground v.1.15,2013-07-28 02:40:00,
2013-07-27 20:50:00,59.0,52.1,29.83,WSW,238,0.0,0.0,78,0.00,,,0.00,Wunderground v.1.15,2013-07-28 02:50:00,
2013-07-27 21:00:00,59.0,52.1,29.83,WSW,238,0.0,0.0,78,0.00,,,0.00,Wunderground v.1.15,2013-07-28 03:00:00,
2013-07-27 21:10:00,59.0,51.8,29.83,WSW,238,0.0,0.0,77,0.00,,,0.00,Wunderground v.1.15,2013-07-28 03:10:00,
2013-07-27 21:15:00,59.0,51.8,29.84,WSW,238,0.0,0.0,77,0.00,,,0.00,Wunderground v.1.15,2013-07-28 03:15:00,
2013-07-27 21:25:00,59.0,52.1,29.85,WSW,238,0.0,0.0,78,0.00,,,0.00,Wunderground v.1.15,2013-07-28 03:25:00,
2013-07-27 21:35:00,59.0,52.5,29.85,WSW,238,0.0,0.0,79,0.00,,,0.00,Wunderground v.1.15,2013-07-28 03:35:00,
2013-07-27 21:40:00,59.0,52.5,29.85,WSW,238,0.0,0.0,79,0.00,,,0.00,Wunderground v.1.15,2013-07-28 03:40:00,
2013-07-27 21:50:00,59.0,52.5,29.85,WSW,238,0.0,0.0,79,0.00,,,0.00,Wunderground v.1.15,2013-07-28 03:50:00,
2013-07-27 22:00:00,59.0,51.8,29.85,South,187,0.0,0.0,77,0.00,,,0.00,Wunderground v.1.15,2013-07-28 04:00:00,
2013-07-27 22:05:00,59.1,52.2,29.85,South,187,0.0,0.0,78,0.00,,,0.00,Wunderground v.1.15,2013-07-28 04:05:00,
2013-07-27 22:10:00,59.2,52.3,29.86,South,187,0.0,0.0,78,0.00,,,0.00,Wunderground v.1.15,2013-07-28 04:10:00,
2013-07-27 22:15:00,59.2,52.7,29.86,South,187,0.0,0.0,79,0.00,,,0.00,Wunderground v.1.15,2013-07-28 04:15:00,
2013-07-27 22:20:00,59.1,52.2,29.86,South,187,0.0,0.0,78,0.00,,,0.00,Wunderground v.1.15,2013-07-28 04:20:00,
2013-07-27 22:25:00,59.0,52.8,29.86,South,187,0.0,0.0,80,0.00,,,0.00,Wunderground v.1.15,2013-07-28 04:25:00,
2013-07-27 22:30:00,59.0,52.5,29.86,South,187,0.0,0.0,79,0.00,,,0.00,Wunderground v.1.15,2013-07-28 04:30:00,
2013-07-27 22:35:00,59.0,52.5,29.86,South,187,0.0,0.0,79,0.00,,,0.00,Wunderground v.1.15,2013-07-28 04:35:00,
2013-07-27 22:45:00,59.0,52.8,29.86,South,187,0.0,0.0,80,0.00,,,0.00,Wunderground v.1.15,2013-07-28 04:45:00,
2013-07-27 22:50:00,59.0,52.5,29.86,South,187,0.0,0.0,79,0.00,,,0.00,Wunderground v.1.15,2013-07-28 04:50:00,
2013-07-27 23:00:00,58.9,52.7,29.86,South,187,0.0,0.0,80,0.00,,,0.00,Wunderground v.1.15,2013-07-28 05:00:00,
2013-07-27 23:10:00,58.8,52.6,29.86,South,187,0.0,0.0,80,0.00,,,0.00,Wunderground v.1.15,2013-07-28 05:10:00,
2013-07-27 23:15:00,58.8,52.6,29.86,South,187,0.0,0.0,80,0.00,,,0.00,Wunderground v.1.15,2013-07-28 05:15:00,
2013-07-27 23:25:00,58.6,52.4,29.86,South,187,0.0,0.0,80,0.00,,,0.00,Wunderground v.1.15,2013-07-28 05:25:00,
2013-07-27 23:35:00,58.6,53.1,29.86,South,187,0.0,0.0,82,0.00,,,0.00,Wunderground v.1.15,2013-07-28 05:35:00,
2013-07-27 23:45:00,58.1,53.3,29.87,South,187,0.0,0.0,84,0.00,,,0.01,Wunderground v.1.15,2013-07-28 05:45:00,
2013-07-27 23:55:00,57.5,53.7,29.87,South,187,0.0,0.0,87,0.16,,,0.05,Wunderground v.1.15,2013-07-28 05:55:00,